Olathe New Century, KS

9:22 AM CDT on April 28, 2017 (GMT -0500)
New Century Aircenter

Weather History for KIXD - April, 2013

Change the Weather History Date:

Thursday, April 11, 2013

  Actual Average Record
Temperature  
Mean Temperature 36 °F -  
Max Temperature 41 °F 62 °F 79 °F (2003)
Min Temperature 33 °F 41 °F 27 °F (2004)
Degree Days  
Heating Degree Days 29    
Moisture  
Dew Point 28 °F    
Average Humidity 75    
Maximum Humidity 93    
Minimum Humidity 60    
Precipitation  
Precipitation 0.00 in - - ()
Sea Level Pressure  
Sea Level Pressure 29.79 in    
Wind  
Wind Speed 14 mph (West)    
Max Wind Speed 18 mph    
Max Gust Speed 26 mph    
Visibility 9 miles    
Events Snow    
Averages and records for this station are not official NWS values.
T = Trace of Precipitation, MM = Missing Value Source: NWS Daily Summary

Daily Weather History Graph

Daily Weather History Graph

Search for Another Location

Airport or City:

Trip Planner

Search our weather history database for the weather conditions in past years. The results will help you decide how hot, cold, wet, or windy it might be!

Date:

Astronomy

Apr. 11, 2013 Rise Set
Actual Time 6:48 AM CDT 7:52 PM CDT
Civil Twilight 6:21 AM CDT 8:20 PM CDT
Nautical Twilight 5:48 AM CDT 8:52 PM CDT
Astronomical Twilight 5:15 AM CDT 9:26 PM CDT
Moon 7:21 AM CDT (4/11) 9:27 PM CDT (4/11)
Length of Visible Light 13h 59m
Length of Day
13h 04m
New Moon, 2% of the Moon is Illuminated
Apr 11
New Moon
Apr 18
First Quarter
Apr 25
Full
May 2
Last Quarter
May 9
New

Hourly Weather History & Observations

Time (CDT) Temp. Windchill Dew Point Humidity Pressure Visibility Wind Dir Wind Speed Gust Speed Precip Events Conditions
12:00 AM 35.6 °F 25.2 °F 33.8 °F 93% 29.82 in 5.0 mi West 18.4 mph 26.5 mph N/A   Overcast
12:53 AM 34.0 °F 23.4 °F 32.0 °F 92% 29.83 in 8.0 mi West 17.3 mph 21.9 mph N/A   Overcast
1:53 AM 34.0 °F 23.8 °F 32.0 °F 92% 29.84 in 5.0 mi West 16.1 mph - N/A   Overcast
2:53 AM 34.0 °F 25.0 °F 32.0 °F 92% 29.79 in 10.0 mi WNW 12.7 mph - N/A   Overcast
3:44 AM 33.8 °F 24.8 °F 30.2 °F 87% 29.77 in 9.0 mi West 12.7 mph 21.9 mph N/A   Overcast
3:53 AM 33.1 °F 23.4 °F 30.9 °F 92% 29.78 in 7.0 mi West 13.8 mph - 0.00 in Snow Light Snow
4:19 AM 33.8 °F 25.3 °F 30.2 °F 87% 29.76 in 7.0 mi West 11.5 mph - 0.00 in Snow Light Snow
4:53 AM 33.1 °F 24.9 °F 30.0 °F 89% 29.78 in 10.0 mi West 10.4 mph - 0.00 in   Overcast
5:19 AM 33.8 °F 25.8 °F 28.4 °F 81% 29.77 in 10.0 mi West 10.4 mph - N/A   Overcast
5:53 AM 33.1 °F 24.4 °F 28.0 °F 82% 29.81 in 10.0 mi West 11.5 mph - N/A   Overcast
6:53 AM 33.1 °F 24.4 °F 28.0 °F 82% 29.78 in 10.0 mi West 11.5 mph - N/A   Overcast
7:53 AM 33.1 °F 26.9 °F 28.0 °F 82% 29.81 in 10.0 mi WSW 6.9 mph - N/A   Overcast
8:53 AM 33.1 °F 23.9 °F 26.1 °F 75% 29.79 in 10.0 mi West 12.7 mph - N/A   Overcast
9:53 AM 34.0 °F 24.2 °F 26.1 °F 73% 29.78 in 10.0 mi West 15.0 mph 20.7 mph N/A   Overcast
10:53 AM 33.1 °F 22.6 °F 24.1 °F 70% 29.79 in 10.0 mi West 16.1 mph - N/A   Overcast
12:53 PM 37.0 °F 29.3 °F 26.1 °F 65% 29.78 in 10.0 mi WSW 11.5 mph 23.0 mph N/A   Overcast
1:08 PM 35.6 °F 28.0 °F 26.6 °F 70% 29.77 in 10.0 mi WSW 10.4 mph - N/A   Overcast
1:53 PM 37.9 °F 28.5 °F 26.1 °F 62% 29.78 in 10.0 mi West 17.3 mph 21.9 mph N/A   Overcast
2:53 PM 39.0 °F 31.0 °F 26.1 °F 60% 29.75 in 10.0 mi West 13.8 mph 21.9 mph N/A   Overcast
3:53 PM 39.9 °F 32.5 °F 27.0 °F 60% 29.74 in 10.0 mi West 12.7 mph - N/A   Overcast
4:53 PM 39.9 °F 32.5 °F 27.0 °F 60% 29.75 in 10.0 mi WNW 12.7 mph 20.7 mph N/A   Overcast
5:53 PM 39.9 °F 31.4 °F 27.0 °F 60% 29.75 in 10.0 mi WNW 16.1 mph 19.6 mph N/A   Overcast
6:53 PM 39.0 °F 30.3 °F 27.0 °F 62% 29.77 in 10.0 mi West 16.1 mph - N/A   Overcast
7:53 PM 37.9 °F 29.6 °F 26.1 °F 62% 29.78 in 10.0 mi WNW 13.8 mph 20.7 mph N/A   Overcast
8:53 PM 37.9 °F 30.9 °F 26.1 °F 62% 29.79 in 10.0 mi West 10.4 mph - N/A   Overcast
9:53 PM 36.0 °F 29.0 °F 26.1 °F 67% 29.81 in 10.0 mi West 9.2 mph - N/A   Overcast
10:53 PM 35.1 °F 29.3 °F 25.0 °F 67% 29.81 in 10.0 mi West 6.9 mph - N/A   Partly Cloudy
11:53 PM 34.0 °F 27.2 °F 25.0 °F 70% 29.81 in 10.0 mi West 8.1 mph - N/A   Mostly Cloudy